This is the latest recevied weather packets stored in our database for station/object KE0PRS. If no packets are shown the sender has not sent any weather packets the latest 10 day(s).
| Time | Temp. | Humidity | Pressure | Rain* | Wind** | Luminosity | Snow |
|---|---|---|---|---|---|---|---|
| 1787851796 | 28.89° C | 60% | 1022 hPa | 0 mm | - | 703 W/m² | - |
| 1787851491 | 28.89° C | 59% | 1022.3 hPa | 0 mm | - | 699 W/m² | - |
| 1787851186 | 28.89° C | 57% | 1022.4 hPa | 0 mm | - | 693 W/m² | - |
| 1787850882 | 28.89° C | 60% | 1022.3 hPa | 0 mm | - | 678 W/m² | - |
| 1787850578 | 28.33° C | 60% | 1022.3 hPa | 0 mm | - | 476 W/m² | - |
| 1787850277 | 28.33° C | 60% | 1022.3 hPa | 0 mm | - | 669 W/m² | - |
| 1787849977 | 28.33° C | 60% | 1022.3 hPa | 0 mm | - | 657 W/m² | - |
| 1787849672 | 27.78° C | 60% | 1022.4 hPa | 0 mm | - | 657 W/m² | - |
| 1787849367 | 27.78° C | 63% | 1022.4 hPa | 0 mm | - | 659 W/m² | - |
| 1787849066 | 27.78° C | 63% | 1022.4 hPa | 0 mm | - | 621 W/m² | - |
| 1787848761 | 27.22° C | 64% | 1022.5 hPa | 0 mm | - | 609 W/m² | - |
| 1787848461 | 27.78° C | 64% | 1022.2 hPa | 0 mm | - | 333 W/m² | - |
| 1787848156 | 27.78° C | 63% | 1022.3 hPa | 0 mm | - | 588 W/m² | - |
| 1787847856 | 27.78° C | 64% | 1022.4 hPa | 0 mm | - | 728 W/m² | - |
| 1787847551 | 27.22° C | 66% | 1022.3 hPa | 0 mm | - | 779 W/m² | - |
| 1787847246 | 27.22° C | 66% | 1022.3 hPa | 0 mm | - | 837 W/m² | - |
| 1787846943 | 27.22° C | 67% | 1022.2 hPa | 0 mm | - | 941 W/m² | - |
| 1787846642 | 27.22° C | 68% | 1022.3 hPa | 0 mm | - | 789 W/m² | - |
| 1787846337 | 26.67° C | 68% | 1022.2 hPa | 0 mm | - | 468 W/m² | - |
| 1787846033 | 26.67° C | 68% | 1022.2 hPa | 0 mm | - | 1080 W/m² | - |
| 1787845729 | 26.67° C | 69% | 1022.3 hPa | 0 mm | - | 1186 W/m² | - |
| 1787845428 | 26.67° C | 69% | 1022 hPa | 0 mm | - | 1064 W/m² | - |
| 1787845125 | 26.11° C | 73% | 1022 hPa | 0 mm | - | 955 W/m² | - |
| 1787844821 | 26.11° C | 74% | 1022.2 hPa | 0 mm | - | 1022 W/m² | - |
| 1787844519 | 25.56° C | 75% | 1022.2 hPa | 0 mm | - | 856 W/m² | - |
* Rain latest hour (hover to see other rain measurements)
** Current wind speed in m/s (hover to see current wind gust speed)